Location: Newark
(34.6283°N, 36.0776°E)
Time: 07:23:41
(UTC+00:00)

Tiros 1 despin weight - Pass Details

Date: 21 September 2019
Orbit: 593 x 643 km, 48.2° (Epoch: 22 October)

Event Time Altitude Azimuth Distance (km) Brightness Sun altitude
Rises 16:04:50 0° 304° (NW) 2,834 ? -7.0°
Reaches altitude 10° 16:07:09 10° 300° (WNW) 1,926 ? -7.5°
Maximum altitude 16:11:29 59° 221° (SW) 682 ? -8.4°
Drops below altitude 10° 16:15:47 10° 142° (SE) 1,914 ? -9.3°
Enters shadow 16:16:58 - 140° (SE) 2,375 ? -9.5°
Sets 16:18:05 0° 138° (SE) 2,814 - -9.7°
